[[{"header":{"parameterUnit":"m.s-1","parameterCategory":2,"la1":30.2991,"la2":30.254,"lo1":-89.0895,"lo2":-89.0444,"dy":0.0017,"dx":0.0017,"nx":28,"ny":28,"refTime":"2024-08-17T09:00:00:Z","depth":"0","parameterNumber":2,"parameterNumberName":"U-component_of_CURRENTS"},"data":[0,0,0,0,0,0,0,0,0,0,0,0,0,0,0,0,0,0,0,0,0,0,0,0,0,0,0,0,0,0,0,0,0,0,0,0,0,0,0,0,0,0,0,0,0,0,0,0,0,0,0,0,0,0,0,0,0,0,-0.2236,-0.2236,0,-0.2264,-0.2264,-0.2264,-0.2277,-0.2277,-0.2278,-0.2278,-0.2329,-0.233,-0.2331,0,0,0,0,0,0,0,0,0,0,0,0,0,-0.2177,-0.2178,-0.2236,-0.2236,-0.2237,-0.2264,-0.2264,-0.2264,-0.2277,-0.2277,-0.2278,-0.2278,-0.2329,-0.233,-0.2332,0,0,0,0,0,0,0,0,0,0,0,0,0,-0.2201,-0.2178,-0.2236,-0.2249,-0.225,-0.2264,-0.2264,-0.2264,-0.2277,-0.2277,-0.2278,-0.2278,-0.2328,-0.233,-0.2332,-0.2336,0,0,-0.2337,-0.2338,0,0,0,0,0,0,0,0,-0.2199,-0.2203,-0.2246,-0.2248,-0.225,-0.227,-0.2262,-0.229,-0.2277,-0.2264,-0.2278,-0.2278,-0.2313,-0.2316,-0.2316,-0.2338,-0.234,-0.2337,-0.2338,-0.2339,-0.234,0,0,0,0,0,0,0,-0.2198,-0.2201,-0.2244,-0.2247,-0.2249,-0.2247,-0.2251,-0.2267,-0.2285,-0.2265,-0.2267,-0.2274,-0.2314,-0.2315,-0.2318,-0.2341,-0.2337,-0.2339,-0.234,-0.234,-0.2334,-0.2333,0,0,0,0,0,0,-0.22,-0.22,-0.2243,-0.2245,-0.2228,-0.2248,-0.2252,-0.2261,-0.2284,-0.2289,-0.2274,-0.2275,-0.2311,-0.2316,-0.232,-0.2329,-0.2339,-0.2341,-0.2342,-0.2335,-0.2334,-0.2332,0,0,0,0,0,0,-0.2199,-0.2204,-0.2242,-0.2225,-0.223,-0.2249,-0.2258,-0.2261,-0.2267,-0.2291,-0.2295,-0.2278,-0.2312,-0.2317,-0.2321,-0.2331,-0.2341,-0.2343,-0.2337,-0.2335,-0.2333,-0.2345,0,0,0,0,0,0,-0.2197,-0.2203,-0.2205,-0.2225,-0.2231,-0.2258,-0.2259,-0.2262,-0.2272,-0.2273,-0.2296,-0.23,-0.2313,-0.2318,-0.2323,-0.2333,-0.2344,-0.2338,-0.2336,-0.2334,-0.2347,-0.2344,-0.2342,0,0,0,0,0,-0.2195,-0.2201,-0.2205,-0.221,-0.2235,-0.2258,-0.2261,-0.2274,-0.2272,-0.2278,-0.2277,-0.23,-0.2307,-0.2319,-0.2325,-0.2336,-0.2339,-0.2336,-0.2334,-0.2347,-0.2345,-0.2342,0,0,0,0,0,0,-0.2174,-0.2204,-0.2209,-0.2223,-0.2242,-0.2262,-0.2267,-0.2274,-0.2278,-0.2275,-0.2291,-0.2295,-0.23,-0.2306,-0.2319,-0.2321,-0.2325,-0.2323,-0.2333,-0.2331,-0.2329,-0.2328,-0.2346,0,0,0,0,0,-0.2171,-0.2183,-0.2211,-0.2219,-0.2231,-0.2247,-0.2255,-0.2265,-0.2274,-0.2277,-0.2289,-0.229,-0.2292,-0.2302,-0.2303,-0.2313,-0.2302,-0.2318,-0.2315,-0.2314,-0.2313,-0.2297,-0.2295,-0.2323,-0.2323,-0.2323,0,0,-0.2161,-0.2181,-0.2185,-0.2215,-0.2228,-0.2248,-0.2252,-0.2268,-0.2278,-0.2282,-0.229,-0.2287,-0.2288,-0.2292,-0.2296,-0.2303,-0.2296,-0.231,-0.231,-0.2309,-0.2294,-0.2292,-0.229,-0.2321,-0.2322,-0.2322,0,0,-0.2157,-0.217,-0.2182,-0.2203,-0.223,-0.2243,-0.225,-0.2272,-0.2275,-0.2283,-0.2278,-0.2273,-0.2288,-0.2285,-0.2287,-0.2271,-0.2281,-0.2273,-0.2276,-0.2261,-0.2259,-0.2258,-0.223,-0.2225,-0.2279,-0.2279,-0.2279,0,-0.2143,-0.2166,-0.2187,-0.221,-0.2225,-0.2244,-0.226,-0.227,-0.2286,-0.2286,-0.2287,-0.2278,-0.2283,-0.228,-0.2271,-0.2271,-0.2257,-0.2294,-0.2261,-0.2259,-0.2257,-0.2229,-0.2224,-0.2279,-0.2279,-0.2279,-0.2279,0,-0.2154,-0.2173,-0.2183,-0.2217,-0.2235,-0.2252,-0.2276,-0.2285,-0.229,-0.2297,-0.2291,-0.2282,-0.2279,-0.2276,-0.2274,-0.2261,-0.2253,-0.2259,-0.2276,-0.2256,-0.2226,-0.2221,-0.228,-0.2279,-0.2279,-0.2279,0,0,-0.2115,-0.2178,-0.2178,-0.2196,-0.224,-0.2253,-0.2274,-0.2294,-0.2298,-0.2304,-0.2301,-0.2293,-0.2285,-0.2282,-0.2274,-0.226,-0.2231,-0.2256,-0.2255,-0.2242,-0.2188,-0.2094,-0.208,-0.2238,-0.2238,-0.2237,-0.2169,0,-0.2113,-0.2153,-0.2185,-0.2212,-0.2234,-0.2263,-0.2281,-0.2299,-0.2307,-0.2309,-0.2298,-0.229,-0.229,-0.2281,-0.2269,-0.2243,-0.222,-0.2248,-0.2197,-0.2194,-0.2126,-0.2071,-0.1956,-0.1879,-0.2164,-0.2163,-0.2163,0,-0.2104,-0.2137,-0.2167,-0.2213,-0.2224,-0.2241,-0.2265,-0.2284,-0.2299,-0.2303,-0.2301,-0.2295,-0.2277,-0.2271,-0.2228,-0.2249,-0.2215,-0.2191,-0.2188,-0.2094,-0.2091,-0.1944,-0.1858,-0.1855,-0.2155,-0.2155,-0.2156,0,-0.2057,-0.2114,-0.2135,-0.2154,-0.2213,-0.2223,-0.2247,-0.2274,-0.2286,-0.2292,-0.2296,-0.2283,-0.227,-0.2238,-0.2192,-0.2213,-0.2128,-0.2155,-0.2034,-0.2028,-0.1913,-0.1897,-0.1828,-0.2106,-0.2106,-0.2107,-0.2107,0,-0.2036,-0.2047,-0.2114,-0.2126,-0.2137,-0.2193,-0.2201,-0.2223,-0.2258,-0.2256,-0.2284,-0.226,-0.2261,-0.2219,-0.218,-0.2077,-0.212,-0.2012,-0.1996,-0.191,-0.1895,-0.1875,-0.1915,-0.2104,-0.2105,-0.2105,-0.2105,0,-0.1968,-0.2021,-0.2041,-0.2102,-0.2113,-0.2116,-0.217,-0.2186,-0.2227,-0.2224,-0.2226,-0.2243,-0.2173,-0.2149,-0.2081,-0.2048,-0.1922,-0.1916,-0.1805,-0.1775,-0.1661,-0.1706,-0.1627,-0.1581,-0.1776,-0.1774,-0.1771,0,-0.1934,-0.1941,-0.1994,-0.2004,-0.2026,-0.2051,-0.2074,-0.2143,-0.2168,-0.2188,-0.2181,-0.2135,-0.2032,-0.191,-0.1844,-0.1738,-0.1781,-0.1608,-0.1621,-0.1611,-0.1652,-0.1705,-0.1678,-0.1476,-0.1471,-0.1468,-0.1465,0,-0.1851,-0.187,-0.1885,-0.1912,-0.1936,-0.195,-0.1991,-0.1993,-0.2063,-0.2018,-0.1931,-0.1837,-0.1775,-0.1602,-0.1527,-0.1469,-0.1568,-0.1526,-0.1546,-0.1421,-0.1444,-0.1405,-0.1573,-0.1431,-0.1434,-0.1437,-0.1439,-0.144,-0.1764,-0.1754,-0.178,-0.1791,-0.1816,-0.1796,-0.1713,-0.174,-0.166,-0.1502,-0.1587,-0.1317,-0.1426,-0.127,-0.1237,-0.1192,-0.1287,-0.1174,-0.1232,-0.1289,-0.1229,-0.1307,-0.1133,-0.1135,-0.1136,-0.1137,-0.1138,0,-0.1648,-0.1652,-0.1662,-0.1645,-0.16,-0.1657,-0.1612,-0.1482,-0.1255,-0.1127,-0.0934,-0.0786,-0.0768,-0.0881,-0.0962,-0.093,-0.0942,-0.0937,-0.1,-0.0989,-0.1062,-0.1031,-0.0788,-0.0788,-0.0788,-0.0788,-0.0788,-0.0788,-0.1586,-0.1551,-0.1561,-0.1428,-0.1395,-0.1215,-0.1114,-0.0933,-0.0777,-0.0389,-0.0142,-0.0063,-0.0377,-0.0782,-0.0889,-0.0853,-0.0882,-0.0831,-0.0905,-0.0983,-0.1011,-0.1038,-0.1017,-0.0775,-0.0775,-0.0766,-0.0766,-0.0766]},{"header":{"parameterUnit":"m.s-1","parameterCategory":2,"la1":30.2991,"la2":30.254,"lo1":-89.0895,"lo2":-89.0444,"dy":0.0017,"dx":0.0017,"nx":28,"ny":28,"refTime":"2024-08-17T09:00:00:Z","depth":"0","parameterNumber":3,"parameterNumberName":"V-component_of_CURRENTS"},"data":[0,0,0,0,0,0,0,0,0,0,0,0,0,0,0,0,0,0,0,0,0,0,0,0,0,0,0,0,0,0,0,0,0,0,0,0,0,0,0,0,0,0,0,0,0,0,0,0,0,0,0,0,0,0,0,0,0,0,-0.03,-0.0299,0,-0.0233,-0.0233,-0.0232,-0.0187,-0.0187,-0.0187,-0.0186,-0.003,-0.0026,-0.0022,0,0,0,0,0,0,0,0,0,0,0,0,0,-0.0341,-0.0341,-0.03,-0.0299,-0.0298,-0.0234,-0.0233,-0.0232,-0.0187,-0.0187,-0.0187,-0.0186,-0.0031,-0.0026,-0.0022,0,0,0,0,0,0,0,0,0,0,0,0,0,-0.0304,-0.0341,-0.03,-0.0268,-0.0265,-0.0234,-0.0233,-0.0231,-0.0187,-0.0187,-0.0187,-0.0186,-0.0032,-0.0027,-0.0021,0.0006,0,0,-0.0003,-0.0001,0,0,0,0,0,0,0,0,-0.0306,-0.0302,-0.0274,-0.027,-0.0266,-0.0218,-0.019,-0.0147,-0.0188,-0.0217,-0.0186,-0.0186,-0.0085,-0.0075,-0.0064,0.0014,0.0021,-0.0003,0.0001,0.0003,0.0005,0,0,0,0,0,0,0,-0.0309,-0.0305,-0.0273,-0.0273,-0.0268,-0.0242,-0.0236,-0.0182,-0.0152,-0.0214,-0.0211,-0.0204,-0.0082,-0.007,-0.006,0.0023,-0.0003,0.0002,0.0006,0.0008,0.0127,0.0127,0,0,0,0,0,0,-0.032,-0.0307,-0.0275,-0.0271,-0.0286,-0.0241,-0.0235,-0.0234,-0.0154,-0.0143,-0.0204,-0.0202,-0.008,-0.0067,-0.0054,-0.0018,0.0003,0.0009,0.0012,0.0128,0.0127,0.0127,0,0,0,0,0,0,-0.0322,-0.0318,-0.0278,-0.0287,-0.028,-0.0242,-0.024,-0.0233,-0.022,-0.0148,-0.0135,-0.0199,-0.0079,-0.0062,-0.0019,-0.0012,0.0012,0.0017,0.0128,0.0128,0.0127,0.0055,0,0,0,0,0,0,-0.0323,-0.0319,-0.0324,-0.0289,-0.028,-0.0265,-0.024,-0.0232,-0.0217,-0.0213,-0.0139,-0.0124,-0.0078,-0.0029,-0.0014,-0.0003,0.0021,0.0129,0.0128,0.0127,0.0058,0.0052,0.0047,0,0,0,0,0,-0.0325,-0.0334,-0.0325,-0.0321,-0.0288,-0.0265,-0.0259,-0.0229,-0.0218,-0.0215,-0.0174,-0.0127,-0.0022,-0.0025,-0.0007,0.0006,0.0129,0.0128,0.0127,0.006,0.0053,0.0047,0,0,0,0,0,0,-0.0353,-0.0329,-0.0318,-0.0319,-0.0297,-0.0258,-0.0254,-0.0234,-0.0201,-0.0197,-0.0131,-0.0114,-0.0074,-0.0028,-0.0033,0.0036,0.0062,0.0065,0.0005,-0.0001,-0.0006,-0.0019,0.0026,0,0,0,0,0,-0.0363,-0.0365,-0.0334,-0.0336,-0.0327,-0.0293,-0.028,-0.0261,-0.0226,-0.0212,-0.0162,-0.0109,-0.0063,-0.003,0.0016,0.0057,0.0104,0.0077,0.0071,0.0066,0.0067,0.0127,0.0127,0.0124,0.0124,0.0124,0,0,-0.0375,-0.0362,-0.0363,-0.0342,-0.0323,-0.0318,-0.0284,-0.0271,-0.0263,-0.0197,-0.0172,-0.0126,-0.0059,-0.0021,0.0003,0.0021,0.0091,0.0065,0.0061,0.0064,0.0126,0.0127,0.0127,0.0124,0.0124,0.0124,0,0,-0.0403,-0.0389,-0.0401,-0.0386,-0.0363,-0.0339,-0.0338,-0.0302,-0.0283,-0.0254,-0.0209,-0.0165,-0.0092,-0.0045,-0.0011,-0.0016,0.0055,0.0002,-0.0023,0.0034,0.0035,0.0036,0.0092,0.0099,0.0006,0.0006,0.0006,0,-0.0419,-0.043,-0.0399,-0.0405,-0.0399,-0.0353,-0.0363,-0.0335,-0.0289,-0.0272,-0.0256,-0.0159,-0.0103,-0.005,-0.0054,-0.0026,0.0016,-0.0006,0.0027,0.0029,0.0032,0.0089,0.0098,0.0003,0.0003,0.0003,0.0004,0,-0.0454,-0.0461,-0.0467,-0.046,-0.0446,-0.0447,-0.0407,-0.0389,-0.036,-0.0325,-0.0276,-0.0207,-0.0147,-0.0122,-0.0086,-0.0039,-0.0013,0.0006,0.0041,0.0028,0.0089,0.01,-0.0002,-0.0001,-0.0,0.0001,0,0,-0.0493,-0.0494,-0.0495,-0.0507,-0.0478,-0.0472,-0.0456,-0.0426,-0.0413,-0.036,-0.0332,-0.0257,-0.0215,-0.0175,-0.012,-0.0066,-0.0012,-0.0026,-0.0022,0.0026,0.0117,0.0168,0.0185,0.0013,0.0014,0.0015,0.0151,0,-0.0532,-0.0568,-0.0546,-0.057,-0.0587,-0.054,-0.0528,-0.049,-0.0445,-0.0404,-0.0326,-0.0279,-0.0235,-0.0206,-0.0147,-0.0044,0.0012,-0.005,0.0126,0.0132,0.0176,0.0197,0.0245,0.0373,0.0161,0.0163,0.0164,0,-0.0574,-0.0595,-0.0633,-0.0636,-0.0636,-0.0634,-0.0605,-0.0587,-0.0512,-0.0473,-0.0409,-0.0343,-0.0255,-0.022,-0.0054,-0.0096,0.0001,0.008,0.0087,0.0169,0.0202,0.0354,0.04,0.0526,0.0181,0.0179,0.0178,0,-0.0631,-0.0651,-0.0689,-0.0691,-0.0683,-0.0684,-0.067,-0.0612,-0.0588,-0.0515,-0.0477,-0.0374,-0.0302,-0.0184,-0.0017,-0.0035,0.0174,0.0172,0.031,0.0315,0.041,0.042,0.0597,0.0288,0.0288,0.0287,0.0287,0,-0.0687,-0.0714,-0.0721,-0.0745,-0.0777,-0.0743,-0.0747,-0.0715,-0.0649,-0.0589,-0.0517,-0.0433,-0.0287,-0.0146,-0.0019,0.019,0.0178,0.0317,0.0359,0.0385,0.0392,0.0548,0.0581,0.0292,0.0291,0.029,0.0289,0,-0.0744,-0.0751,-0.0794,-0.0804,-0.0809,-0.083,-0.0807,-0.0797,-0.0728,-0.0643,-0.0618,-0.0465,-0.0271,-0.0116,0.0104,0.0207,0.0475,0.0458,0.0478,0.052,0.0738,0.0763,0.0969,0.1057,0.062,0.0622,0.0624,0,-0.0778,-0.0809,-0.0847,-0.0875,-0.0883,-0.0903,-0.0907,-0.0851,-0.0804,-0.0631,-0.0574,-0.039,-0.0189,0.0123,0.0307,0.0532,0.0608,0.0691,0.0663,0.0774,0.0833,0.0837,0.0895,0.0762,0.0765,0.0767,0.0769,0,-0.0836,-0.0846,-0.0881,-0.0943,-0.0967,-0.0969,-0.0945,-0.0881,-0.0755,-0.0618,-0.0345,-0.0172,0.0074,0.0359,0.0564,0.0686,0.0785,0.0744,0.0868,0.0969,0.098,0.1076,0.0641,0.0789,0.0787,0.0786,0.0784,0.0784,-0.0864,-0.0904,-0.0947,-0.0994,-0.1014,-0.0946,-0.0851,-0.075,-0.056,-0.0236,-0.0105,0.0231,0.0455,0.0766,0.0881,0.1057,0.0992,0.1124,0.115,0.1146,0.1222,0.0828,0.1012,0.1011,0.101,0.101,0.1009,0,-0.0894,-0.0931,-0.099,-0.0987,-0.0947,-0.096,-0.0812,-0.0647,-0.0307,-0.0053,0.029,0.076,0.1,0.1127,0.1317,0.1453,0.1471,0.1507,0.153,0.1574,0.1251,0.1249,0.1483,0.1483,0.1483,0.1482,0.1482,0.1482,-0.0909,-0.0967,-0.0994,-0.0911,-0.0861,-0.0686,-0.053,-0.0299,-0.0073,0.0449,0.0784,0.1063,0.1268,0.157,0.176,0.1785,0.1921,0.1892,0.1961,0.1735,0.17,0.1667,0.1676,0.1996,0.1997,0.2288,0.2291,0.2293]}],[{"header":{"parameterUnit":"m.s-1","parameterCategory":2,"la1":30.2991,"la2":30.254,"lo1":-89.0895,"lo2":-89.0444,"dy":0.0017,"dx":0.0017,"nx":28,"ny":28,"refTime":"2024-08-17T09:00:00:Z","depth":"2","parameterNumber":2,"parameterNumberName":"U-component_of_CURRENTS"},"data":[0,0,0,0,0,0,0,0,0,0,0,0,0,0,0,0,0,0,0,0,0,0,0,0,0,0,0,0,0,0,0,0,0,0,0,0,0,0,0,0,0,0,0,0,0,0,0,0,0,0,0,0,0,0,0,0,0,0,-0.2149,-0.215,0,-0.2178,-0.2178,-0.2178,-0.2193,-0.2194,-0.2194,-0.2194,-0.2229,-0.2229,-0.223,0,0,0,0,0,0,0,0,0,0,0,0,0,-0.209,-0.209,-0.2149,-0.215,-0.215,-0.2178,-0.2178,-0.2178,-0.2193,-0.2194,-0.2194,-0.2194,-0.2228,-0.2229,-0.223,0,0,0,0,0,0,0,0,0,0,0,0,0,-0.2114,-0.2091,-0.2149,-0.2163,-0.2165,-0.2178,-0.2178,-0.2178,-0.2193,-0.2194,-0.2194,-0.2194,-0.2228,-0.2229,-0.223,-0.223,0,0,-0.2233,-0.2234,0,0,0,0,0,0,0,0,-0.2113,-0.2116,-0.216,-0.2162,-0.2164,-0.2184,-0.217,-0.2197,-0.2193,-0.218,-0.2194,-0.2194,-0.2216,-0.2218,-0.2219,-0.2231,-0.2233,-0.2234,-0.2234,-0.2235,-0.2235,0,0,0,0,0,0,0,-0.2111,-0.2115,-0.2158,-0.2161,-0.2163,-0.2162,-0.2165,-0.2175,-0.2194,-0.2181,-0.2183,-0.219,-0.2216,-0.2218,-0.222,-0.2233,-0.2233,-0.2234,-0.2235,-0.2235,-0.2234,-0.2233,0,0,0,0,0,0,-0.2113,-0.2114,-0.2158,-0.2159,-0.2141,-0.2163,-0.2167,-0.2176,-0.2194,-0.2197,-0.2189,-0.219,-0.2216,-0.2219,-0.2221,-0.2233,-0.2235,-0.2236,-0.2236,-0.2235,-0.2234,-0.2233,0,0,0,0,0,0,-0.2112,-0.2117,-0.2156,-0.2139,-0.2144,-0.2164,-0.2173,-0.2176,-0.2184,-0.22,-0.2204,-0.2195,-0.2216,-0.222,-0.2226,-0.2235,-0.2236,-0.2237,-0.2235,-0.2234,-0.2233,-0.2251,0,0,0,0,0,0,-0.211,-0.2116,-0.212,-0.2139,-0.2145,-0.2172,-0.2173,-0.2176,-0.2188,-0.219,-0.2206,-0.221,-0.2217,-0.2224,-0.2227,-0.2236,-0.2238,-0.2236,-0.2235,-0.2234,-0.2251,-0.225,-0.225,0,0,0,0,0,-0.2108,-0.2115,-0.212,-0.2125,-0.2151,-0.2173,-0.2176,-0.2189,-0.2188,-0.2196,-0.2197,-0.2209,-0.2218,-0.2224,-0.2228,-0.2238,-0.2237,-0.2235,-0.2234,-0.2251,-0.225,-0.225,0,0,0,0,0,0,-0.209,-0.2118,-0.2123,-0.2139,-0.2157,-0.2176,-0.2182,-0.219,-0.2196,-0.2195,-0.2205,-0.2208,-0.2215,-0.2217,-0.2224,-0.2229,-0.2228,-0.2227,-0.224,-0.2239,-0.2239,-0.2237,-0.2239,0,0,0,0,0,-0.2088,-0.21,-0.2127,-0.2136,-0.2147,-0.2163,-0.2172,-0.2183,-0.2193,-0.2196,-0.2206,-0.2208,-0.2209,-0.2217,-0.2218,-0.2227,-0.2213,-0.2231,-0.2231,-0.223,-0.2229,-0.2215,-0.2213,-0.2228,-0.2228,-0.2228,0,0,-0.208,-0.2099,-0.2104,-0.2133,-0.2145,-0.2165,-0.2169,-0.2186,-0.2198,-0.2199,-0.2211,-0.2208,-0.2208,-0.2214,-0.2217,-0.2221,-0.2215,-0.2228,-0.2229,-0.2227,-0.2213,-0.2212,-0.2211,-0.2227,-0.2227,-0.2227,0,0,-0.2078,-0.2092,-0.2104,-0.2123,-0.215,-0.2163,-0.217,-0.2193,-0.2199,-0.221,-0.2206,-0.2203,-0.2217,-0.2214,-0.2215,-0.2209,-0.2209,-0.2212,-0.2219,-0.2206,-0.2205,-0.2204,-0.2174,-0.217,-0.2218,-0.2218,-0.2218,0,-0.2067,-0.209,-0.2109,-0.2131,-0.2147,-0.2165,-0.2183,-0.2193,-0.2212,-0.2215,-0.2216,-0.2213,-0.2215,-0.2215,-0.2212,-0.2211,-0.2198,-0.2227,-0.2207,-0.2206,-0.2204,-0.2174,-0.217,-0.2218,-0.2218,-0.2218,-0.2218,0,-0.2078,-0.2098,-0.2107,-0.2141,-0.216,-0.2177,-0.2202,-0.2214,-0.2221,-0.223,-0.2231,-0.2223,-0.2223,-0.2221,-0.2219,-0.2211,-0.2201,-0.2206,-0.2214,-0.2204,-0.2172,-0.2167,-0.2219,-0.2219,-0.2219,-0.2219,0,0,-0.2043,-0.2103,-0.2104,-0.2123,-0.2167,-0.2181,-0.2205,-0.2228,-0.2236,-0.2245,-0.2248,-0.2243,-0.2237,-0.2235,-0.2227,-0.2215,-0.219,-0.221,-0.2209,-0.2189,-0.2149,-0.2064,-0.2051,-0.2199,-0.2198,-0.2198,-0.2126,0,-0.2042,-0.2082,-0.2113,-0.2144,-0.2166,-0.2196,-0.2217,-0.2239,-0.2251,-0.2257,-0.2249,-0.2246,-0.2244,-0.2238,-0.2229,-0.2203,-0.218,-0.2208,-0.2153,-0.2151,-0.2085,-0.2043,-0.1896,-0.1813,-0.2122,-0.2121,-0.212,0,-0.2035,-0.2067,-0.2101,-0.215,-0.2161,-0.2181,-0.2212,-0.2233,-0.2252,-0.2261,-0.2263,-0.2258,-0.2243,-0.2236,-0.2194,-0.2215,-0.2179,-0.2155,-0.2152,-0.2064,-0.2057,-0.1873,-0.1793,-0.2112,-0.2113,-0.2113,-0.2114,0,-0.1993,-0.205,-0.2075,-0.2094,-0.2155,-0.217,-0.2196,-0.2228,-0.2242,-0.2255,-0.2262,-0.2252,-0.2239,-0.2209,-0.2162,-0.2181,-0.21,-0.2122,-0.2007,-0.2001,-0.1858,-0.1839,-0.2076,-0.2076,-0.2076,-0.2076,-0.2077,0,-0.1975,-0.199,-0.2057,-0.207,-0.2088,-0.2145,-0.2161,-0.2185,-0.2223,-0.2223,-0.2254,-0.2237,-0.2233,-0.2192,-0.2154,-0.2053,-0.2093,-0.1989,-0.1972,-0.1856,-0.1839,-0.2092,-0.2095,-0.2074,-0.2074,-0.2075,-0.2075,0,-0.1914,-0.1966,-0.199,-0.2054,-0.2068,-0.2076,-0.2134,-0.2149,-0.2196,-0.2196,-0.2199,-0.2221,-0.2154,-0.2126,-0.2059,-0.2025,-0.1948,-0.1899,-0.1753,-0.1719,-0.1862,-0.1866,-0.177,-0.1766,-0.1763,-0.1761,-0.1758,0,-0.1885,-0.1894,-0.195,-0.1961,-0.1986,-0.2017,-0.2038,-0.211,-0.2126,-0.2164,-0.2151,-0.2117,-0.205,-0.1934,-0.1834,-0.1726,-0.1822,-0.1568,-0.1575,-0.1834,-0.1828,-0.1838,-0.1846,-0.1389,-0.1384,-0.1379,-0.1376,0,-0.1812,-0.1832,-0.185,-0.1874,-0.1898,-0.1917,-0.1953,-0.1966,-0.2036,-0.205,-0.203,-0.1986,-0.1859,-0.1673,-0.1546,-0.1476,-0.1578,-0.148,-0.1772,-0.1494,-0.147,-0.1466,-0.1487,-0.1339,-0.1343,-0.1346,-0.1348,-0.1349,-0.1734,-0.1728,-0.1752,-0.1757,-0.1785,-0.1782,-0.1745,-0.1804,-0.1805,-0.1781,-0.185,-0.1737,-0.1671,-0.138,-0.1266,-0.1173,-0.1288,-0.1261,-0.1276,-0.1295,-0.1269,-0.1241,-0.1061,-0.1063,-0.1065,-0.1066,-0.1068,0,-0.163,-0.1629,-0.1635,-0.1623,-0.1585,-0.1647,-0.1652,-0.1596,-0.1544,-0.1572,-0.1543,-0.1353,-0.1202,-0.1128,-0.0909,-0.0864,-0.0874,-0.0846,-0.0872,-0.0907,-0.0939,-0.0898,-0.059,-0.0589,-0.0588,-0.0587,0,0,-0.1574,-0.1534,-0.1533,-0.1412,-0.1398,-0.1299,-0.1266,-0.1228,-0.121,-0.1143,-0.1101,-0.1182,-0.1129,-0.0897,-0.0805,-0.0663,-0.0789,-0.0623,-0.1003,-0.107,-0.1101,-0.1166,-0.114,0,0,0,0,0]},{"header":{"parameterUnit":"m.s-1","parameterCategory":2,"la1":30.2991,"la2":30.254,"lo1":-89.0895,"lo2":-89.0444,"dy":0.0017,"dx":0.0017,"nx":28,"ny":28,"refTime":"2024-08-17T09:00:00:Z","depth":"2","parameterNumber":3,"parameterNumberName":"V-component_of_CURRENTS"},"data":[0,0,0,0,0,0,0,0,0,0,0,0,0,0,0,0,0,0,0,0,0,0,0,0,0,0,0,0,0,0,0,0,0,0,0,0,0,0,0,0,0,0,0,0,0,0,0,0,0,0,0,0,0,0,0,0,0,0,-0.0327,-0.0326,0,-0.0268,-0.0267,-0.0266,-0.0224,-0.0224,-0.0224,-0.0223,-0.0088,-0.0085,-0.0082,0,0,0,0,0,0,0,0,0,0,0,0,0,-0.0365,-0.0364,-0.0327,-0.0326,-0.0326,-0.0268,-0.0267,-0.0266,-0.0224,-0.0224,-0.0224,-0.0223,-0.0089,-0.0086,-0.0082,0,0,0,0,0,0,0,0,0,0,0,0,0,-0.0331,-0.0364,-0.0327,-0.0298,-0.0295,-0.0268,-0.0267,-0.0266,-0.0224,-0.0224,-0.0223,-0.0223,-0.0091,-0.0086,-0.0081,-0.0059,0,0,-0.0066,-0.0064,0,0,0,0,0,0,0,0,-0.0333,-0.033,-0.0303,-0.03,-0.0296,-0.0253,-0.023,-0.0193,-0.0225,-0.0251,-0.0223,-0.0223,-0.0137,-0.0128,-0.0119,-0.0053,-0.0047,-0.0065,-0.0062,-0.006,-0.0059,0,0,0,0,0,0,0,-0.0335,-0.0332,-0.0303,-0.0302,-0.0298,-0.0274,-0.0269,-0.0223,-0.0196,-0.0249,-0.0245,-0.0239,-0.0134,-0.0124,-0.0115,-0.0045,-0.0066,-0.0061,-0.0058,-0.0056,0.0046,0.0046,0,0,0,0,0,0,-0.0346,-0.0334,-0.0305,-0.0301,-0.0314,-0.0274,-0.0269,-0.0267,-0.0198,-0.0187,-0.024,-0.0238,-0.0132,-0.0121,-0.011,-0.0077,-0.006,-0.0056,-0.0053,0.0047,0.0046,0.0046,0,0,0,0,0,0,-0.0347,-0.0344,-0.0308,-0.0316,-0.031,-0.0274,-0.0273,-0.0266,-0.0255,-0.0192,-0.018,-0.0236,-0.0132,-0.0117,-0.008,-0.0072,-0.0053,-0.0049,0.0047,0.0046,0.0046,-0.0013,0,0,0,0,0,0,-0.0348,-0.0345,-0.0349,-0.0317,-0.031,-0.0298,-0.0273,-0.0265,-0.0252,-0.0249,-0.0184,-0.0171,-0.013,-0.0088,-0.0075,-0.0064,-0.0045,0.0047,0.0047,0.0046,-0.0011,-0.0016,-0.002,0,0,0,0,0,-0.035,-0.036,-0.035,-0.0347,-0.0317,-0.0298,-0.0292,-0.0265,-0.0253,-0.0252,-0.0214,-0.0173,-0.0082,-0.0085,-0.007,-0.0057,0.0047,0.0047,0.0046,-0.0009,-0.0015,-0.002,0,0,0,0,0,0,-0.0378,-0.0355,-0.0344,-0.0346,-0.0326,-0.0291,-0.0289,-0.027,-0.024,-0.0236,-0.0178,-0.0163,-0.0128,-0.0088,-0.0093,-0.003,-0.0009,-0.0007,-0.0057,-0.0061,-0.0066,-0.0073,-0.0041,0,0,0,0,0,-0.0387,-0.0389,-0.0361,-0.0364,-0.0356,-0.0324,-0.0314,-0.0295,-0.0264,-0.0252,-0.0207,-0.016,-0.0119,-0.0089,-0.005,-0.0013,0.0029,0.0005,0.0001,-0.0003,-0.0,0.0059,0.006,0.0044,0.0044,0.0044,0,0,-0.0399,-0.0387,-0.0388,-0.037,-0.0353,-0.0347,-0.0317,-0.0306,-0.0297,-0.024,-0.0216,-0.0176,-0.0116,-0.0081,-0.006,-0.0044,0.0022,-0.0004,-0.0008,-0.0002,0.0058,0.006,0.0062,0.0044,0.0044,0.0044,0,0,-0.0426,-0.0414,-0.0425,-0.0412,-0.0391,-0.0369,-0.0369,-0.0336,-0.0317,-0.0293,-0.025,-0.0209,-0.0147,-0.01,-0.0068,-0.007,-0.001,-0.0058,-0.0073,-0.0017,-0.0015,-0.0012,0.0035,0.0042,-0.0051,-0.0052,-0.0052,0,-0.0442,-0.0451,-0.0425,-0.043,-0.0422,-0.0383,-0.0389,-0.0364,-0.0323,-0.0304,-0.0294,-0.0203,-0.0153,-0.0097,-0.01,-0.0077,-0.0042,-0.0059,-0.0022,-0.0019,-0.0015,0.0033,0.0042,-0.0055,-0.0054,-0.0054,-0.0054,0,-0.0475,-0.048,-0.0485,-0.0478,-0.0465,-0.0465,-0.0428,-0.0411,-0.0384,-0.0351,-0.0301,-0.024,-0.0182,-0.0159,-0.0128,-0.0077,-0.006,-0.0042,-0.001,-0.0017,0.0034,0.0044,-0.0059,-0.0058,-0.0057,-0.0056,0,0,-0.0514,-0.0511,-0.0512,-0.0518,-0.0491,-0.0486,-0.0468,-0.0436,-0.0419,-0.0372,-0.034,-0.027,-0.0232,-0.0194,-0.0143,-0.009,-0.0038,-0.006,-0.0056,-0.0016,0.0081,0.0104,0.0118,-0.0015,-0.0014,-0.0012,0.0104,0,-0.0548,-0.0576,-0.0556,-0.0572,-0.0584,-0.054,-0.0525,-0.0487,-0.0445,-0.0404,-0.0327,-0.0282,-0.0244,-0.0217,-0.0158,-0.0068,-0.0013,-0.0071,0.0084,0.0089,0.011,0.013,0.0107,0.021,0.0114,0.0116,0.0117,0,-0.0585,-0.0601,-0.0631,-0.0624,-0.0623,-0.0621,-0.0587,-0.0567,-0.0493,-0.0457,-0.0392,-0.0331,-0.0244,-0.0217,-0.0062,-0.0103,-0.0018,0.0051,0.0058,0.011,0.0132,0.0204,0.0232,0.0135,0.0133,0.0132,0.0131,0,-0.0636,-0.0648,-0.0676,-0.0676,-0.0662,-0.0661,-0.0646,-0.0588,-0.0564,-0.0489,-0.0457,-0.0351,-0.0288,-0.0176,-0.0032,-0.0046,0.0139,0.0141,0.0245,0.0247,0.0275,0.0277,0.0252,0.0252,0.0252,0.0252,0.0251,0,-0.0683,-0.0703,-0.0706,-0.0724,-0.0749,-0.0714,-0.0714,-0.0681,-0.0618,-0.0578,-0.0491,-0.0426,-0.0274,-0.0149,-0.0033,0.0142,0.0144,0.0252,0.0285,0.0252,0.0251,0.0223,0.0218,0.0256,0.0255,0.0254,0.0253,0,-0.0734,-0.0737,-0.077,-0.0774,-0.0779,-0.0796,-0.0773,-0.0763,-0.0698,-0.0641,-0.0617,-0.047,-0.0301,-0.0144,0.0059,0.015,0.0305,0.0367,0.0314,0.0338,0.0373,0.0363,0.0489,0.0491,0.0492,0.0494,0.0495,0,-0.0763,-0.0789,-0.082,-0.0846,-0.0853,-0.0868,-0.0875,-0.0818,-0.0791,-0.0655,-0.0624,-0.0452,-0.0317,-0.0022,0.0178,0.0388,0.038,0.0473,0.0446,0.0381,0.0401,0.0388,0.0377,0.0458,0.0459,0.046,0.046,0,-0.0815,-0.0824,-0.0854,-0.0916,-0.0941,-0.096,-0.0954,-0.0945,-0.085,-0.0788,-0.0653,-0.0535,-0.022,0.0022,0.0293,0.0406,0.0431,0.0492,0.0464,0.0394,0.036,0.0376,0.0365,0.0466,0.0465,0.0465,0.0464,0.0464,-0.0844,-0.0882,-0.0923,-0.0975,-0.101,-0.1036,-0.1046,-0.1011,-0.0968,-0.0834,-0.0713,-0.0504,-0.0236,0.0158,0.0354,0.0533,0.0527,0.0552,0.0547,0.0542,0.0509,0.0479,0.0602,0.0602,0.0602,0.0602,0.0602,0,-0.0879,-0.0919,-0.0978,-0.1038,-0.1082,-0.1084,-0.1081,-0.1056,-0.1007,-0.0843,-0.0714,-0.043,-0.0147,0.0143,0.0447,0.0606,0.0579,0.0613,0.0552,0.0546,0.054,0.0505,0.0598,0.0598,0.0599,0.0599,0,0,-0.0898,-0.0961,-0.0993,-0.1077,-0.1119,-0.1147,-0.1144,-0.1092,-0.0973,-0.0815,-0.0639,-0.0456,-0.0097,0.0099,0.0313,0.0481,0.046,0.048,0.0467,0.0365,0.0357,0.0492,0.0429,0,0,0,0,0]}],[{"header":{"parameterUnit":"m.s-1","parameterCategory":2,"la1":30.2991,"la2":30.254,"lo1":-89.0895,"lo2":-89.0444,"dy":0.0017,"dx":0.0017,"nx":28,"ny":28,"refTime":"2024-08-17T09:00:00:Z","depth":"4","parameterNumber":2,"parameterNumberName":"U-component_of_CURRENTS"},"data":[0,0,0,0,0,0,0,0,0,0,0,0,0,0,0,0,0,0,0,0,0,0,0,0,0,0,0,0,0,0,0,0,0,0,0,0,0,0,0,0,0,0,0,0,0,0,0,0,0,0,0,0,0,0,0,0,0,0,-0.1593,-0.1594,0,-0.1653,-0.1654,-0.1654,-0.1714,-0.1715,-0.1716,-0.1717,-0.1794,-0.1795,-0.1796,0,0,0,0,0,0,0,0,0,0,0,0,0,-0.1507,-0.1508,-0.1593,-0.1594,-0.1595,-0.1653,-0.1654,-0.1655,-0.1714,-0.1715,-0.1717,-0.1718,-0.1793,-0.1795,-0.1796,0,0,0,0,0,0,0,0,0,0,0,0,0,-0.1552,-0.1508,-0.1593,-0.1633,-0.1637,-0.1653,-0.1654,-0.1655,-0.1714,-0.1715,-0.1717,-0.1718,-0.1793,-0.1794,-0.1796,-0.1778,0,0,-0.1801,-0.1802,0,0,0,0,0,0,0,0,-0.1549,-0.1555,-0.1626,-0.163,-0.1635,-0.1679,-0.1652,-0.1698,-0.1714,-0.1683,-0.1717,-0.1719,-0.1757,-0.1762,-0.1767,-0.1782,-0.1785,-0.1802,-0.1803,-0.1803,-0.1804,0,0,0,0,0,0,0,-0.1546,-0.1552,-0.1615,-0.1627,-0.1632,-0.164,-0.1648,-0.166,-0.171,-0.1686,-0.1691,-0.17,-0.1759,-0.1765,-0.1769,-0.1786,-0.1801,-0.1803,-0.1804,-0.1805,-0.1855,-0.1855,0,0,0,0,0,0,-0.1542,-0.1549,-0.1613,-0.1617,-0.1597,-0.1641,-0.165,-0.1662,-0.171,-0.1719,-0.1698,-0.1702,-0.1762,-0.1767,-0.1772,-0.1827,-0.1803,-0.1805,-0.1806,-0.1854,-0.1855,-0.1855,0,0,0,0,0,0,-0.154,-0.1547,-0.1611,-0.1586,-0.1595,-0.1641,-0.1655,-0.1663,-0.1701,-0.172,-0.1729,-0.1732,-0.1763,-0.177,-0.1806,-0.1828,-0.1806,-0.1807,-0.1854,-0.1855,-0.1855,-0.189,0,0,0,0,0,0,-0.1537,-0.1546,-0.1565,-0.1586,-0.1596,-0.1641,-0.1654,-0.1663,-0.1703,-0.1709,-0.1751,-0.1757,-0.1765,-0.1803,-0.1808,-0.183,-0.1809,-0.1854,-0.1854,-0.1855,-0.1888,-0.1891,-0.1894,0,0,0,0,0,-0.1534,-0.1551,-0.1566,-0.1574,-0.1618,-0.1642,-0.1649,-0.1684,-0.1703,-0.1723,-0.1749,-0.1758,-0.181,-0.1805,-0.181,-0.1833,-0.1854,-0.1854,-0.1855,-0.1887,-0.1891,-0.1894,0,0,0,0,0,0,-0.1526,-0.156,-0.1576,-0.1605,-0.1632,-0.1654,-0.1678,-0.1698,-0.1733,-0.1747,-0.1764,-0.1772,-0.1809,-0.1812,-0.1806,-0.1847,-0.1832,-0.1834,-0.1855,-0.1858,-0.1861,-0.1856,-0.181,0,0,0,0,0,-0.1532,-0.1556,-0.1585,-0.161,-0.1626,-0.1656,-0.1676,-0.1699,-0.1726,-0.1745,-0.1772,-0.1794,-0.1808,-0.1829,-0.184,-0.1866,-0.1847,-0.1882,-0.1885,-0.1887,-0.1885,-0.1876,-0.1877,-0.1857,-0.1857,-0.1857,0,0,-0.1536,-0.1558,-0.1573,-0.1611,-0.1635,-0.1661,-0.1672,-0.171,-0.1737,-0.1745,-0.1797,-0.1807,-0.1815,-0.1843,-0.186,-0.1856,-0.188,-0.1888,-0.189,-0.1887,-0.1876,-0.1878,-0.188,-0.1858,-0.1858,-0.1858,0,0,-0.1545,-0.1577,-0.1598,-0.1624,-0.1665,-0.1683,-0.1699,-0.1737,-0.1764,-0.1803,-0.1811,-0.1833,-0.187,-0.1873,-0.1879,-0.1902,-0.1892,-0.1913,-0.1933,-0.1925,-0.1926,-0.1927,-0.1895,-0.1893,-0.192,-0.192,-0.192,0,-0.1552,-0.1583,-0.1609,-0.1635,-0.1662,-0.1695,-0.1724,-0.1749,-0.1796,-0.1814,-0.1829,-0.1867,-0.1878,-0.1896,-0.1907,-0.191,-0.1897,-0.1923,-0.1929,-0.193,-0.193,-0.1897,-0.1895,-0.1922,-0.1922,-0.1922,-0.1921,0,-0.1568,-0.1606,-0.1622,-0.1667,-0.1696,-0.1728,-0.1764,-0.1799,-0.1835,-0.1856,-0.1893,-0.1902,-0.1924,-0.1931,-0.1931,-0.1943,-0.1929,-0.193,-0.1921,-0.1934,-0.1898,-0.1895,-0.1925,-0.1924,-0.1923,-0.1923,0,0,-0.1544,-0.162,-0.1628,-0.1659,-0.1719,-0.174,-0.1789,-0.1831,-0.186,-0.1902,-0.193,-0.1953,-0.196,-0.1964,-0.1965,-0.1962,-0.1952,-0.1956,-0.1955,-0.1925,-0.192,-0.1791,-0.1775,-0.1963,-0.1963,-0.1963,-0.1889,0,-0.1552,-0.1606,-0.1643,-0.17,-0.173,-0.1779,-0.1817,-0.1861,-0.1897,-0.1931,-0.1944,-0.1969,-0.1972,-0.1984,-0.1983,-0.1962,-0.1948,-0.1971,-0.191,-0.1908,-0.1793,-0.1768,-0.1963,-0.1887,-0.1886,-0.1885,-0.1885,0,-0.1548,-0.1589,-0.1647,-0.172,-0.1738,-0.1778,-0.1843,-0.188,-0.1928,-0.1956,-0.1984,-0.1993,-0.2,-0.1997,-0.1968,-0.1988,-0.1956,-0.1933,-0.193,-0.1794,-0.1772,-0.1873,-0.1879,-0.1879,-0.1879,-0.188,-0.188,0,-0.1504,-0.1586,-0.1635,-0.1662,-0.1748,-0.1787,-0.1832,-0.189,-0.1921,-0.1968,-0.1988,-0.2003,-0.2006,-0.1984,-0.1944,-0.1963,-0.1892,-0.191,-0.1757,-0.1747,-0.1874,-0.1873,-0.1874,-0.1874,-0.1874,-0.1874,-0.1875,0,-0.148,-0.1521,-0.1625,-0.165,-0.1702,-0.1773,-0.1825,-0.1868,-0.1929,-0.1939,-0.1996,-0.1985,-0.2007,-0.1973,-0.1938,-0.182,-0.1885,-0.174,-0.1714,-0.1888,-0.189,-0.187,-0.1871,-0.1872,-0.1872,-0.1873,-0.1873,0,-0.1415,-0.1489,-0.1547,-0.1651,-0.1683,-0.1718,-0.1815,-0.1841,-0.1914,-0.1926,-0.194,-0.1975,-0.1912,-0.19,-0.1843,-0.1788,-0.1704,-0.1646,-0.1808,-0.1797,-0.1568,-0.1571,-0.1467,-0.1461,-0.1457,-0.1453,-0.145,0,-0.1382,-0.141,-0.1525,-0.1557,-0.1609,-0.1679,-0.1717,-0.1813,-0.183,-0.1885,-0.1865,-0.1851,-0.1843,-0.1656,-0.1667,-0.157,-0.1555,-0.1516,-0.156,-0.1537,-0.1524,-0.1535,-0.1544,-0.1443,-0.1442,-0.144,-0.1439,0,-0.131,-0.1366,-0.1411,-0.1474,-0.1529,-0.1573,-0.1631,-0.1634,-0.1714,-0.1807,-0.1732,-0.1684,-0.1604,-0.1546,-0.1475,-0.1416,-0.1549,-0.147,-0.148,-0.152,-0.1508,-0.1501,-0.1516,-0.1424,-0.1426,-0.1427,-0.1428,0,-0.125,-0.1263,-0.1327,-0.136,-0.1423,-0.1421,-0.1481,-0.1488,-0.1517,-0.1592,-0.1553,-0.1536,-0.1573,-0.1461,-0.1394,-0.1322,-0.131,-0.1291,-0.131,-0.1328,-0.1315,-0.1281,-0.1084,0,0,0,0,0,-0.1179,-0.1172,-0.1203,-0.1224,-0.1278,-0.1301,-0.1392,-0.1455,-0.1539,-0.1445,-0.1498,-0.1411,-0.1315,-0.1316,-0.1205,-0.1315,-0.1309,-0.1184,-0.1299,-0.1338,-0.1356,-0.1353,0,0,0,0,0,0,-0.1132,-0.1157,-0.1155,-0.1085,-0.1071,-0.1104,-0.1154,-0.1226,-0.1188,-0.1286,-0.1235,-0.1318,-0.1236,-0.1326,-0.1164,-0.1163,-0.1208,-0.1194,-0.119,-0.1328,-0.1344,-0.1358,-0.1362,0,0,0,0,0]},{"header":{"parameterUnit":"m.s-1","parameterCategory":2,"la1":30.2991,"la2":30.254,"lo1":-89.0895,"lo2":-89.0444,"dy":0.0017,"dx":0.0017,"nx":28,"ny":28,"refTime":"2024-08-17T09:00:00:Z","depth":"4","parameterNumber":3,"parameterNumberName":"V-component_of_CURRENTS"},"data":[0,0,0,0,0,0,0,0,0,0,0,0,0,0,0,0,0,0,0,0,0,0,0,0,0,0,0,0,0,0,0,0,0,0,0,0,0,0,0,0,0,0,0,0,0,0,0,0,0,0,0,0,0,0,0,0,0,0,-0.0244,-0.0244,0,-0.0208,-0.0207,-0.0207,-0.018,-0.018,-0.018,-0.0179,-0.0085,-0.0083,-0.0081,0,0,0,0,0,0,0,0,0,0,0,0,0,-0.0263,-0.0263,-0.0244,-0.0244,-0.0244,-0.0208,-0.0207,-0.0207,-0.018,-0.018,-0.018,-0.0179,-0.0086,-0.0083,-0.008,0,0,0,0,0,0,0,0,0,0,0,0,0,-0.0243,-0.0263,-0.0245,-0.0226,-0.0224,-0.0208,-0.0207,-0.0206,-0.018,-0.018,-0.018,-0.0179,-0.0087,-0.0083,-0.008,-0.0064,0,0,-0.0069,-0.0068,0,0,0,0,0,0,0,0,-0.0244,-0.0242,-0.0229,-0.0228,-0.0225,-0.0199,-0.0179,-0.0156,-0.018,-0.0196,-0.0179,-0.0179,-0.0118,-0.0112,-0.0106,-0.0059,-0.0055,-0.0069,-0.0067,-0.0065,-0.0064,0,0,0,0,0,0,0,-0.0245,-0.0243,-0.0229,-0.0229,-0.0227,-0.021,-0.0207,-0.0175,-0.0158,-0.0195,-0.0193,-0.019,-0.0117,-0.011,-0.0103,-0.0054,-0.0069,-0.0066,-0.0064,-0.0062,0.0009,0.0009,0,0,0,0,0,0,-0.0253,-0.0245,-0.0231,-0.0228,-0.0235,-0.021,-0.0207,-0.0207,-0.0159,-0.0153,-0.019,-0.0189,-0.0116,-0.0108,-0.01,-0.0078,-0.0065,-0.0062,-0.006,0.0009,0.0009,0.0009,0,0,0,0,0,0,-0.0253,-0.0252,-0.0232,-0.0236,-0.0232,-0.021,-0.0211,-0.0207,-0.0202,-0.0156,-0.0148,-0.0191,-0.0115,-0.0105,-0.0082,-0.0074,-0.006,-0.0057,0.0009,0.0009,0.0009,-0.0033,0,0,0,0,0,0,-0.0254,-0.0253,-0.0259,-0.0237,-0.0232,-0.023,-0.0211,-0.0206,-0.0201,-0.0199,-0.0154,-0.0145,-0.0114,-0.0087,-0.0078,-0.0069,-0.0054,0.001,0.0009,0.0009,-0.0031,-0.0035,-0.0038,0,0,0,0,0,-0.0255,-0.0265,-0.0259,-0.0258,-0.024,-0.023,-0.0227,-0.021,-0.0201,-0.0204,-0.0177,-0.0146,-0.0083,-0.0085,-0.0074,-0.0063,0.001,0.0009,0.0009,-0.003,-0.0034,-0.0038,0,0,0,0,0,0,-0.0277,-0.0263,-0.0256,-0.0262,-0.025,-0.0226,-0.0229,-0.0215,-0.0197,-0.0195,-0.0152,-0.0141,-0.0119,-0.0089,-0.0092,-0.0045,-0.003,-0.0028,-0.0063,-0.0067,-0.007,-0.0071,-0.0052,0,0,0,0,0,-0.0285,-0.029,-0.0271,-0.0278,-0.0274,-0.0253,-0.0248,-0.0236,-0.0215,-0.0208,-0.0177,-0.0143,-0.0112,-0.0089,-0.0063,-0.0035,0.0,-0.0021,-0.0024,-0.0027,-0.0021,0.0035,0.0038,0.0007,0.0007,0.0007,0,0,-0.0296,-0.0289,-0.0292,-0.0283,-0.0273,-0.0271,-0.0249,-0.0247,-0.024,-0.0199,-0.0185,-0.0157,-0.011,-0.0085,-0.007,-0.0057,-0.0003,-0.0027,-0.003,-0.0022,0.0035,0.0038,0.0041,0.0007,0.0007,0.0007,0,0,-0.032,-0.0315,-0.0326,-0.0318,-0.0308,-0.0292,-0.0294,-0.0274,-0.0261,-0.0247,-0.0213,-0.0181,-0.0141,-0.0098,-0.0072,-0.0074,-0.0028,-0.0069,-0.0073,-0.002,-0.0017,-0.0013,0.0021,0.0028,-0.0061,-0.0062,-0.0062,0,-0.0334,-0.0342,-0.0328,-0.0333,-0.0329,-0.0304,-0.031,-0.0293,-0.0268,-0.0251,-0.025,-0.0179,-0.0142,-0.009,-0.0093,-0.0078,-0.0051,-0.0063,-0.0023,-0.0019,-0.0015,0.002,0.0028,-0.0064,-0.0063,-0.0063,-0.0063,0,-0.036,-0.0367,-0.0374,-0.0371,-0.0364,-0.0368,-0.0341,-0.0332,-0.0315,-0.0289,-0.0249,-0.0203,-0.0155,-0.0138,-0.0115,-0.0064,-0.0058,-0.0041,-0.0013,-0.0014,0.0022,0.0031,-0.0067,-0.0066,-0.0065,-0.0065,0,0,-0.039,-0.0393,-0.0395,-0.04,-0.0384,-0.0382,-0.037,-0.0345,-0.033,-0.0298,-0.0269,-0.0213,-0.0183,-0.0152,-0.0112,-0.0061,-0.0014,-0.0043,-0.0039,-0.0009,0.0089,0.0062,0.007,0.0008,0.0009,0.0011,0.0097,0,-0.0415,-0.0439,-0.0426,-0.0441,-0.0449,-0.042,-0.0409,-0.0381,-0.0351,-0.0318,-0.0252,-0.0217,-0.0188,-0.0167,-0.0112,-0.0041,0.001,-0.004,0.0086,0.009,0.0067,0.008,0.0016,0.0104,0.0106,0.0108,0.0109,0,-0.0441,-0.0454,-0.0479,-0.0475,-0.0475,-0.0479,-0.0454,-0.0439,-0.0379,-0.0352,-0.0297,-0.0249,-0.017,-0.0152,-0.0019,-0.0056,0.0013,0.0069,0.0074,0.0074,0.0081,0.011,0.0126,0.0125,0.0124,0.0122,0.0121,0,-0.0471,-0.0485,-0.0509,-0.051,-0.0504,-0.0507,-0.05,-0.0455,-0.0438,-0.0375,-0.0353,-0.0256,-0.0209,-0.0109,0.0001,-0.0007,0.0144,0.0151,0.0195,0.0194,0.0211,0.0207,0.0252,0.0252,0.0252,0.0252,0.0252,0,-0.0497,-0.0515,-0.0532,-0.0546,-0.0572,-0.0548,-0.0554,-0.0529,-0.0483,-0.0458,-0.0378,-0.0331,-0.0196,-0.0096,0.0002,0.0122,0.0149,0.0199,0.022,0.0188,0.018,0.0217,0.0211,0.0255,0.0254,0.0254,0.0253,0,-0.0522,-0.0534,-0.0566,-0.0581,-0.0592,-0.0611,-0.0609,-0.0603,-0.0555,-0.052,-0.0502,-0.0379,-0.025,-0.0116,0.0056,0.0116,0.0237,0.0276,0.0221,0.0237,0.0249,0.0241,0.033,0.033,0.033,0.033,0.033,0,-0.0535,-0.0557,-0.0605,-0.0637,-0.0652,-0.0676,-0.0691,-0.0653,-0.0639,-0.0545,-0.0525,-0.0394,-0.0304,-0.0085,0.0055,0.0236,0.026,0.0307,0.0288,0.0249,0.0261,0.0252,0.0244,0.033,0.033,0.0329,0.0329,0,-0.0558,-0.0582,-0.0613,-0.0685,-0.0723,-0.0752,-0.0765,-0.0756,-0.0695,-0.0652,-0.0538,-0.0411,-0.0261,-0.0089,0.005,0.0182,0.0265,0.0307,0.0308,0.029,0.025,0.0259,0.0251,0.0329,0.0329,0.0329,0.0329,0,-0.0576,-0.061,-0.0664,-0.0719,-0.0777,-0.081,-0.081,-0.0777,-0.0747,-0.0634,-0.0594,-0.0418,-0.0306,-0.0114,0.0019,0.0137,0.0164,0.0183,0.0191,0.0193,0.0123,0.0049,0.0091,0,0,0,0,0,-0.0588,-0.0631,-0.0692,-0.0756,-0.0813,-0.0841,-0.0849,-0.083,-0.077,-0.0702,-0.0644,-0.0499,-0.028,-0.017,-0.0056,0.0006,0.0172,0.014,0.0193,0.0328,0.0328,0.0266,0,0,0,0,0,0,-0.0599,-0.066,-0.0693,-0.0773,-0.0819,-0.0873,-0.0878,-0.0839,-0.0786,-0.0708,-0.0585,-0.0497,-0.0279,-0.0348,-0.0061,-0.002,0.0022,0.0256,0.0257,0.0327,0.0328,0.0328,0.0264,0,0,0,0,0]}]]